THOR ABLESTAR R/B, 204

Orbit data source: Space-Track

THOR ABLESTAR R/B, 204 is space debris in LEO originally from a launch on Wed, 15 Nov 1961 UTC launched from the Air Force Eastern Test Range (AFETR). Debris objects in space refer to the collection of defunct objects orbiting the Earth. Examples of debris include non-operational satellites, rocket bodies, and fragments generated from explosions, collisions, or faulty payload assembly.

Loading next visibility...
Identifier
204, 1961-031C
Orbit
LEO
Country
Flag of USUS
Related business
Manufacturer
Aerojet
Mission
Spacecraft
Bus & Motor
ABLESTAR, Unknown motor
Mass
~600 kg wet, 600 kg dry
Launch date (UTC)
1961-11-15 (64 years ago)
Launch vehicle
Unknown
Launch site
Air Force Eastern Test Range (AFETR)
Object type
Payload
Rocket body
Debris
Shape & HBR
Unknown
Radar Cross Section
Large (>1 m²)

Expand to show TLE details & history
Last TLE update: 6 hours ago

TLE from 6 hours ago
0 THOR ABLESTAR R/B
1   204U 61031C   25308.77318148  .00000061  00000-0  47405-4 0  9995
2   204  32.4407 104.2016 0098332  43.5581 317.2757 13.65060597192346
Epoch: 2025-11-04T18:33Z
TLE epoch observation values (Epoch: 2025-11-04T18:33:22.879Z)
Latitude
0.00003°
Longitude
141.60092°
Altitude
963.018 km
Speed
7.399 km/s
True Right ascension
06h 56m 48s
True Declination
0° 00' 00"
Sunlit
Object was in daylight at epoch
Visualization orbit readout
Latitude
Unknown
Longitude
Unknown
Altitude
Unknown
Speed
Unknown
Apparent Right ascension
Unknown
Apparent Declination
Unknown
Sunlit
N/A
Visualization observer readout
Local Sidereal Time
20:16:07
Azimuth
Unknown
Elevation
Unknown
Doppler factor
Unknown
Orbital elements
Apogee altitude
1,093.503 km
Perigee altitude
947.994 km
Semi-major axis
7,398.885 km
Eccentricity
0.00983
Inclination
32.4407°
RAAN
104.2016°
Arg. of periapsis
43.5581°
True anomaly
316.50426°
Mean anomaly
317.2757°
Eccentric anomaly
316.89068°
Mean motion
3.41031 °/min
Orbital period
105.56 mins
BSTAR
0.000047405
Loading maneuver chart data...
Computing Atmospheric mass density...
Loading historical data...
Loading historical data...
Loading historical data...
Loading historical data...
Loading historical data...
Loading historical data...
Loading historical data...
Other satellites on launch #31 in the year 1961 (1961-11-15 UTC)

Documentation

Showing up to 5 results
|